Lid_Strength_Index
0 -0 -1 -1 -1 -1 -1 -1 -1 -0 -1 -1 -1 -1 -1 -1 -1 -1 -1 -1 -1 -0 0 0 1 1 1 2 2 2 3 3 3 4 4 4 4 4 4 4 4 4 4
0 0 -0 -0 -1 -1 -1 -1 -1 -1 -0 -1 -1 -1 -1 -1 -1 -1 -0 -0 -0 -0 0 1 1 1 2 2 3 3 3 4 4 4 4 5 5 5 5 5 5 5 4
0 0 -0 -0 -0 -1 -0 -1 -1 -1 -0 -0 -0 -1 -1 -1 -1 -0 0 0 1 1 1 1 2 2 2 3 3 4 4 4 4 5 5 5 5 5 5 5 5 5 5
-0 0 0 0 -1 -0 -0 -0 -0 0 0 1 1 -0 1 -1 -0 -0 -0 -0 1 1 2 2 2 3 3 3 4 4 4 5 5 5 5 5 6 6 6 5 5 5 5
-1 -1 -0 -1 -1 -0 0 -0 0 0 1 1 1 1 0 0 0 1 -0 -0 0 1 2 3 3 3 4 4 4 4 4 5 5 5 6 6 6 6 6 6 6 6 6
-1 -1 -0 -1 -1 -0 -0 -0 0 0 0 1 2 2 1 2 2 1 0 1 1 1 2 3 4 5 4 5 4 4 4 5 5 6 6 6 7 7 7 6 6 6 6
-1 -1 -0 -0 -0 -0 -0 -0 0 1 1 2 5 5 5 4 3 1 0 2 1 2 1 2 3 5 6 6 5 5 5 5 5 6 6 7 7 7 7 7 7 7 6
0 -1 -0 -0 -0 -0 -0 0 1 1 1 1 2 3 6 6 5 2 2 3 1 2 2 2 3 4 5 6 6 6 5 5 6 6 7 7 7 7 7 7 7 7 7
-0 -1 -1 -0 -0 -0 0 0 0 1 2 1 0 2 5 5 3 3 3 3 1 2 2 3 3 4 4 5 6 6 5 6 6 6 7 7 7 7 7 7 7 8 7
-0 -1 -1 -1 -0 -0 0 0 -0 0 1 2 1 1 0 2 4 5 2 2 1 2 2 3 3 3 4 5 6 6 7 7 7 7 7 7 7 7 7 8 8 8 6
-0 -1 -1 -1 -0 -0 -0 -0 0 0 0 1 2 2 1 1 1 3 5 4 2 2 2 2 3 4 4 4 5 7 7 8 8 8 7 7 7 7 8 8 8 7 6
0 -0 -0 -0 -1 -0 -0 -0 -0 0 0 0 1 1 1 2 3 3 4 5 4 3 2 2 2 3 3 4 5 7 8 9 8 8 8 8 7 8 8 8 8 7 6
1 0 -0 -0 -0 -0 -0 -0 -0 -0 0 1 1 1 0 1 1 1 4 5 6 3 3 2 2 2 3 3 4 7 8 10 9 8 8 8 8 9 9 8 8 7 6
1 -0 0 -0 -0 -0 -1 -0 -0 0 -0 0 0 0 1 1 0 2 2 5 6 5 5 4 3 3 3 4 4 7 8 10 10 9 9 8 8 9 9 8 8 7 6
0 0 -0 0 -0 -0 -0 -0 0 0 0 0 0 0 1 0 0 0 1 2 4 6 6 5 5 3 4 3 5 6 6 9 10 10 10 8 8 8 8 8 7 7 7
0 0 0 0 0 -0 -0 -0 0 0 0 0 0 1 1 0 0 0 2 3 2 3 5 4 3 4 4 5 6 5 6 9 10 11 10 9 8 8 7 7 6 7 7
0 0 0 0 0 0 0 0 0 0 1 1 0 1 1 0 1 0 2 4 3 4 4 4 3 3 4 4 6 5 5 7 8 10 10 10 9 9 8 7 7 7 7
0 0 0 1 1 0 0 1 1 1 1 1 1 1 1 1 1 0 2 4 4 4 5 4 5 5 5 4 4 5 6 6 6 10 9 9 9 9 8 8 8 8 8
0 0 0 1 1 0 1 0 1 1 1 1 1 1 1 1 1 1 2 4 4 5 6 6 6 3 4 4 5 5 6 5 6 8 9 9 9 8 8 8 8 8 8
1 1 0 0 0 0 0 0 1 1 1 1 1 1 1 1 1 1 2 3 4 5 6 6 5 5 4 5 5 6 7 6 7 7 7 7 8 9 8 8 8 8 8
1 0 1 0 0 1 1 1 1 1 1 1 1 1 0 1 5 3 2 3 5 5 6 5 6 5 6 6 7 6 6 6 6 5 4 5 6 7 6 8 7 7 8
1 1 1 1 1 1 6 8 3 1 1 1 2 1 1 5 6 9 9 9 6 5 5 5 5 6 7 6 6 6 6 6 8 3 5 5 4 4 4 4 6 7 8
1 2 2 1 1 1 12 11 11 1 1 1 1 1 1 2 5 5 10 10 11 13 10 6 7 7 6 5 5 6 6 7 7 5 5 6 4 5 4 6 8 8 9
2 2 2 2 1 2 11 12 12 1 1 1 1 1 2 3 4 6 8 9 8 9 9 8 7 5 4 3 4 5 6 5 4 6 6 7 4 5 4 4 8 8 9
2 2 2 2 2 3 11 11 9 3 4 3 3 4 4 5 10 10 7 9 8 10 14 14 14 14 13 11 8 6 7 7 6 6 6 7 5 4 5 5 5 9 10
3 3 4 2 5 5 12 12 9 6 7 8 9 9 12 8 13 12 7 9 10 11 12 13 11 12 11 11 13 6 6 7 6 6 4 6 5 6 7 5 5 6 7